Location: Voyageurs National Park
(48.5020°N, 92.9292°W)
Time: 08:01:30
(UTC-05:00)

Cosmos 1076 Rocket - Pass Details

Date: 19 January 2018
Orbit: 589 x 613 km, 82.5° (Epoch: 20 May)

Event Time Altitude Azimuth Distance (km) Brightness Sun altitude
Exits shadow 05:10:24 50° 134° (SE) 767 4.2 -26.9°
Drops below altitude 10° 05:13:46 10° 161° (SSE) 1,936 6.3 -26.3°
Sets 05:15:58 0° 164° (SSE) 2,829 7.2 -25.9°
